Data supplied by UK-AIR on 27/11/2015
All Data GMT hour ending 
Status: R =Ratified P=Provisional,P*=As supplied
,,Bath Roadside,,,,,,,,,,,,,,,,,,,,,,,
Date,time,"Nitric oxide",status,unit,"Nitrogen dioxide",status,unit,"Nitrogen oxides as nitrogen dioxide",status,unit
 
01-01-2012,01:00,,,,,,,,,
01-01-2012,02:00,24.00000,R,ugm-3,34.00000,R,ugm-3,71.00000,R,ugm-3
01-01-2012,03:00,21.00000,R,ugm-3,31.00000,R,ugm-3,63.00000,R,ugm-3
01-01-2012,04:00,17.00000,R,ugm-3,25.00000,R,ugm-3,52.00000,R,ugm-3
01-01-2012,05:00,11.00000,R,ugm-3,27.00000,R,ugm-3,44.00000,R,ugm-3
01-01-2012,06:00,7.00000,R,ugm-3,17.00000,R,ugm-3,29.00000,R,ugm-3
01-01-2012,07:00,5.00000,R,ugm-3,17.00000,R,ugm-3,25.00000,R,ugm-3
01-01-2012,08:00,9.00000,R,ugm-3,15.00000,R,ugm-3,29.00000,R,ugm-3
01-01-2012,09:00,9.00000,R,ugm-3,19.00000,R,ugm-3,33.00000,R,ugm-3
01-01-2012,10:00,34.00000,R,ugm-3,46.00000,R,ugm-3,98.00000,R,ugm-3
01-01-2012,11:00,39.00000,R,ugm-3,52.00000,R,ugm-3,111.00000,R,ugm-3
01-01-2012,12:00,42.00000,R,ugm-3,54.00000,R,ugm-3,119.00000,R,ugm-3
01-01-2012,13:00,57.00000,R,ugm-3,67.00000,R,ugm-3,155.00000,R,ugm-3
01-01-2012,14:00,65.00000,R,ugm-3,75.00000,R,ugm-3,174.00000,R,ugm-3
01-01-2012,15:00,64.00000,R,ugm-3,67.00000,R,ugm-3,164.00000,R,ugm-3
01-01-2012,16:00,64.00000,R,ugm-3,69.00000,R,ugm-3,166.00000,R,ugm-3
01-01-2012,17:00,69.00000,R,ugm-3,73.00000,R,ugm-3,178.00000,R,ugm-3
01-01-2012,18:00,36.00000,R,ugm-3,50.00000,R,ugm-3,105.00000,R,ugm-3
01-01-2012,19:00,35.00000,R,ugm-3,55.00000,R,ugm-3,109.00000,R,ugm-3
01-01-2012,20:00,32.00000,R,ugm-3,50.00000,R,ugm-3,99.00000,R,ugm-3
01-01-2012,21:00,24.00000,R,ugm-3,40.00000,R,ugm-3,77.00000,R,ugm-3
01-01-2012,22:00,26.00000,R,ugm-3,50.00000,R,ugm-3,90.00000,R,ugm-3
01-01-2012,23:00,37.00000,R,ugm-3,52.00000,R,ugm-3,109.00000,R,ugm-3
01-01-2012,24:00,21.00000,R,ugm-3,36.00000,R,ugm-3,69.00000,R,ugm-3
02-01-2012,01:00,20.00000,R,ugm-3,38.00000,R,ugm-3,69.00000,R,ugm-3
02-01-2012,02:00,6.00000,R,ugm-3,13.00000,R,ugm-3,23.00000,R,ugm-3
02-01-2012,03:00,14.00000,R,ugm-3,25.00000,R,ugm-3,46.00000,R,ugm-3
02-01-2012,04:00,5.00000,R,ugm-3,10.00000,R,ugm-3,17.00000,R,ugm-3
02-01-2012,05:00,9.00000,R,ugm-3,17.00000,R,ugm-3,31.00000,R,ugm-3
02-01-2012,06:00,19.00000,R,ugm-3,36.00000,R,ugm-3,65.00000,R,ugm-3
02-01-2012,07:00,10.00000,R,ugm-3,25.00000,R,ugm-3,40.00000,R,ugm-3
02-01-2012,08:00,30.00000,R,ugm-3,48.00000,R,ugm-3,94.00000,R,ugm-3
02-01-2012,09:00,36.00000,R,ugm-3,57.00000,R,ugm-3,113.00000,R,ugm-3
02-01-2012,10:00,40.00000,R,ugm-3,54.00000,R,ugm-3,115.00000,R,ugm-3
02-01-2012,11:00,70.00000,R,ugm-3,71.00000,R,ugm-3,178.00000,R,ugm-3
02-01-2012,12:00,81.00000,R,ugm-3,77.00000,R,ugm-3,201.00000,R,ugm-3
02-01-2012,13:00,67.00000,R,ugm-3,63.00000,R,ugm-3,166.00000,R,ugm-3
02-01-2012,14:00,51.00000,R,ugm-3,55.00000,R,ugm-3,134.00000,R,ugm-3
02-01-2012,15:00,117.00000,R,ugm-3,103.00000,R,ugm-3,283.00000,R,ugm-3
02-01-2012,16:00,118.00000,R,ugm-3,101.00000,R,ugm-3,283.00000,R,ugm-3
02-01-2012,17:00,111.00000,R,ugm-3,94.00000,R,ugm-3,264.00000,R,ugm-3
02-01-2012,18:00,84.00000,R,ugm-3,86.00000,R,ugm-3,214.00000,R,ugm-3
02-01-2012,19:00,61.00000,R,ugm-3,75.00000,R,ugm-3,168.00000,R,ugm-3
02-01-2012,20:00,64.00000,R,ugm-3,71.00000,R,ugm-3,168.00000,R,ugm-3
02-01-2012,21:00,32.00000,R,ugm-3,48.00000,R,ugm-3,98.00000,R,ugm-3
02-01-2012,22:00,35.00000,R,ugm-3,52.00000,R,ugm-3,105.00000,R,ugm-3
02-01-2012,23:00,25.00000,R,ugm-3,44.00000,R,ugm-3,82.00000,R,ugm-3
02-01-2012,24:00,12.00000,R,ugm-3,27.00000,R,ugm-3,46.00000,R,ugm-3
03-01-2012,01:00,7.00000,R,ugm-3,15.00000,R,ugm-3,27.00000,R,ugm-3
03-01-2012,02:00,7.00000,R,ugm-3,15.00000,R,ugm-3,27.00000,R,ugm-3
03-01-2012,03:00,4.00000,R,ugm-3,11.00000,R,ugm-3,17.00000,R,ugm-3
03-01-2012,04:00,5.00000,R,ugm-3,6.00000,R,ugm-3,13.00000,R,ugm-3
03-01-2012,05:00,9.00000,R,ugm-3,10.00000,R,ugm-3,23.00000,R,ugm-3
03-01-2012,06:00,11.00000,R,ugm-3,17.00000,R,ugm-3,34.00000,R,ugm-3
03-01-2012,07:00,24.00000,R,ugm-3,33.00000,R,ugm-3,69.00000,R,ugm-3
03-01-2012,08:00,51.00000,R,ugm-3,48.00000,R,ugm-3,126.00000,R,ugm-3
03-01-2012,09:00,54.00000,R,ugm-3,54.00000,R,ugm-3,136.00000,R,ugm-3
03-01-2012,10:00,49.00000,R,ugm-3,48.00000,R,ugm-3,122.00000,R,ugm-3
03-01-2012,11:00,42.00000,R,ugm-3,46.00000,R,ugm-3,111.00000,R,ugm-3
03-01-2012,12:00,69.00000,R,ugm-3,73.00000,R,ugm-3,178.00000,R,ugm-3
03-01-2012,13:00,82.00000,R,ugm-3,78.00000,R,ugm-3,205.00000,R,ugm-3
03-01-2012,14:00,52.00000,R,ugm-3,55.00000,R,ugm-3,136.00000,R,ugm-3
03-01-2012,15:00,,,,,,,,,
03-01-2012,16:00,,,,,,,,,
03-01-2012,17:00,,,,,,,,,
03-01-2012,18:00,,,,,,,,,
03-01-2012,19:00,,,,,,,,,
03-01-2012,20:00,,,,,,,,,
03-01-2012,21:00,,,,,,,,,
03-01-2012,22:00,,,,,,,,,
03-01-2012,23:00,,,,,,,,,
03-01-2012,24:00,,,,,,,,,
04-01-2012,01:00,,,,,,,,,
04-01-2012,02:00,,,,,,,,,
04-01-2012,03:00,,,,,,,,,
04-01-2012,04:00,,,,,,,,,
04-01-2012,05:00,,,,,,,,,
04-01-2012,06:00,,,,,,,,,
04-01-2012,07:00,,,,,,,,,
04-01-2012,08:00,,,,,,,,,
04-01-2012,09:00,,,,,,,,,
04-01-2012,10:00,,,,,,,,,
04-01-2012,11:00,,,,,,,,,
04-01-2012,12:00,,,,,,,,,
04-01-2012,13:00,76.00000,R,ugm-3,73.00000,R,ugm-3,189.00000,R,ugm-3
04-01-2012,14:00,67.00000,R,ugm-3,69.00000,R,ugm-3,172.00000,R,ugm-3
04-01-2012,15:00,65.00000,R,ugm-3,71.00000,R,ugm-3,170.00000,R,ugm-3
04-01-2012,16:00,71.00000,R,ugm-3,71.00000,R,ugm-3,180.00000,R,ugm-3
04-01-2012,17:00,71.00000,R,ugm-3,67.00000,R,ugm-3,176.00000,R,ugm-3
04-01-2012,18:00,54.00000,R,ugm-3,61.00000,R,ugm-3,143.00000,R,ugm-3
04-01-2012,19:00,46.00000,R,ugm-3,50.00000,R,ugm-3,120.00000,R,ugm-3
04-01-2012,20:00,29.00000,R,ugm-3,38.00000,R,ugm-3,82.00000,R,ugm-3
04-01-2012,21:00,17.00000,R,ugm-3,27.00000,R,ugm-3,54.00000,R,ugm-3
04-01-2012,22:00,9.00000,R,ugm-3,17.00000,R,ugm-3,31.00000,R,ugm-3
04-01-2012,23:00,10.00000,R,ugm-3,15.00000,R,ugm-3,31.00000,R,ugm-3
04-01-2012,24:00,7.00000,R,ugm-3,10.00000,R,ugm-3,21.00000,R,ugm-3
05-01-2012,01:00,5.00000,R,ugm-3,8.00000,R,ugm-3,15.00000,R,ugm-3
05-01-2012,02:00,1.00000,R,ugm-3,8.00000,R,ugm-3,10.00000,R,ugm-3
05-01-2012,03:00,2.00000,R,ugm-3,4.00000,R,ugm-3,8.00000,R,ugm-3
05-01-2012,04:00,4.00000,R,ugm-3,8.00000,R,ugm-3,13.00000,R,ugm-3
05-01-2012,05:00,7.00000,R,ugm-3,13.00000,R,ugm-3,25.00000,R,ugm-3
05-01-2012,06:00,11.00000,R,ugm-3,21.00000,R,ugm-3,38.00000,R,ugm-3
05-01-2012,07:00,24.00000,R,ugm-3,27.00000,R,ugm-3,63.00000,R,ugm-3
05-01-2012,08:00,54.00000,R,ugm-3,59.00000,R,ugm-3,142.00000,R,ugm-3
05-01-2012,09:00,67.00000,R,ugm-3,82.00000,R,ugm-3,186.00000,R,ugm-3
05-01-2012,10:00,62.00000,R,ugm-3,78.00000,R,ugm-3,174.00000,R,ugm-3
05-01-2012,11:00,45.00000,R,ugm-3,54.00000,R,ugm-3,122.00000,R,ugm-3
05-01-2012,12:00,36.00000,R,ugm-3,46.00000,R,ugm-3,101.00000,R,ugm-3
05-01-2012,13:00,34.00000,R,ugm-3,44.00000,R,ugm-3,96.00000,R,ugm-3
05-01-2012,14:00,32.00000,R,ugm-3,48.00000,R,ugm-3,98.00000,R,ugm-3
05-01-2012,15:00,27.00000,R,ugm-3,34.00000,R,ugm-3,77.00000,R,ugm-3
05-01-2012,16:00,29.00000,R,ugm-3,42.00000,R,ugm-3,86.00000,R,ugm-3
05-01-2012,17:00,50.00000,R,ugm-3,57.00000,R,ugm-3,134.00000,R,ugm-3
05-01-2012,18:00,75.00000,R,ugm-3,69.00000,R,ugm-3,184.00000,R,ugm-3
05-01-2012,19:00,70.00000,R,ugm-3,73.00000,R,ugm-3,180.00000,R,ugm-3
05-01-2012,20:00,41.00000,R,ugm-3,54.00000,R,ugm-3,117.00000,R,ugm-3
05-01-2012,21:00,25.00000,R,ugm-3,34.00000,R,ugm-3,73.00000,R,ugm-3
05-01-2012,22:00,31.00000,R,ugm-3,44.00000,R,ugm-3,92.00000,R,ugm-3
05-01-2012,23:00,22.00000,R,ugm-3,38.00000,R,ugm-3,73.00000,R,ugm-3
05-01-2012,24:00,35.00000,R,ugm-3,38.00000,R,ugm-3,92.00000,R,ugm-3
06-01-2012,01:00,16.00000,R,ugm-3,34.00000,R,ugm-3,59.00000,R,ugm-3
06-01-2012,02:00,4.00000,R,ugm-3,10.00000,R,ugm-3,15.00000,R,ugm-3
06-01-2012,03:00,24.00000,R,ugm-3,31.00000,R,ugm-3,67.00000,R,ugm-3
06-01-2012,04:00,21.00000,R,ugm-3,36.00000,R,ugm-3,69.00000,R,ugm-3
06-01-2012,05:00,55.00000,R,ugm-3,50.00000,R,ugm-3,134.00000,R,ugm-3
06-01-2012,06:00,91.00000,R,ugm-3,65.00000,R,ugm-3,205.00000,R,ugm-3
06-01-2012,07:00,120.00000,R,ugm-3,82.00000,R,ugm-3,266.00000,R,ugm-3
06-01-2012,08:00,183.00000,R,ugm-3,109.00000,R,ugm-3,390.00000,R,ugm-3
06-01-2012,09:00,368.00000,R,ugm-3,164.00000,R,ugm-3,729.00000,R,ugm-3
06-01-2012,10:00,264.00000,R,ugm-3,117.00000,R,ugm-3,522.00000,R,ugm-3
06-01-2012,11:00,258.00000,R,ugm-3,134.00000,R,ugm-3,530.00000,R,ugm-3
06-01-2012,12:00,215.00000,R,ugm-3,119.00000,R,ugm-3,448.00000,R,ugm-3
06-01-2012,13:00,147.00000,R,ugm-3,107.00000,R,ugm-3,333.00000,R,ugm-3
06-01-2012,14:00,158.00000,R,ugm-3,117.00000,R,ugm-3,360.00000,R,ugm-3
06-01-2012,15:00,183.00000,R,ugm-3,119.00000,R,ugm-3,400.00000,R,ugm-3
06-01-2012,16:00,131.00000,R,ugm-3,101.00000,R,ugm-3,302.00000,R,ugm-3
06-01-2012,17:00,100.00000,R,ugm-3,88.00000,R,ugm-3,241.00000,R,ugm-3
06-01-2012,18:00,203.00000,R,ugm-3,92.00000,R,ugm-3,404.00000,R,ugm-3
06-01-2012,19:00,127.00000,R,ugm-3,88.00000,R,ugm-3,283.00000,R,ugm-3
06-01-2012,20:00,62.00000,R,ugm-3,61.00000,R,ugm-3,157.00000,R,ugm-3
06-01-2012,21:00,42.00000,R,ugm-3,48.00000,R,ugm-3,113.00000,R,ugm-3
06-01-2012,22:00,25.00000,R,ugm-3,44.00000,R,ugm-3,82.00000,R,ugm-3
06-01-2012,23:00,17.00000,R,ugm-3,31.00000,R,ugm-3,57.00000,R,ugm-3
06-01-2012,24:00,20.00000,R,ugm-3,29.00000,R,ugm-3,59.00000,R,ugm-3
07-01-2012,01:00,14.00000,R,ugm-3,31.00000,R,ugm-3,52.00000,R,ugm-3
07-01-2012,02:00,5.00000,R,ugm-3,17.00000,R,ugm-3,25.00000,R,ugm-3
07-01-2012,03:00,7.00000,R,ugm-3,13.00000,R,ugm-3,25.00000,R,ugm-3
07-01-2012,04:00,10.00000,R,ugm-3,21.00000,R,ugm-3,36.00000,R,ugm-3
07-01-2012,05:00,14.00000,R,ugm-3,27.00000,R,ugm-3,48.00000,R,ugm-3
07-01-2012,06:00,16.00000,R,ugm-3,21.00000,R,ugm-3,46.00000,R,ugm-3
07-01-2012,07:00,20.00000,R,ugm-3,33.00000,R,ugm-3,63.00000,R,ugm-3
07-01-2012,08:00,32.00000,R,ugm-3,42.00000,R,ugm-3,92.00000,R,ugm-3
07-01-2012,09:00,86.00000,R,ugm-3,82.00000,R,ugm-3,214.00000,R,ugm-3
07-01-2012,10:00,66.00000,R,ugm-3,71.00000,R,ugm-3,172.00000,R,ugm-3
07-01-2012,11:00,81.00000,R,ugm-3,80.00000,R,ugm-3,205.00000,R,ugm-3
07-01-2012,12:00,74.00000,R,ugm-3,69.00000,R,ugm-3,182.00000,R,ugm-3
07-01-2012,13:00,50.00000,R,ugm-3,59.00000,R,ugm-3,136.00000,R,ugm-3
07-01-2012,14:00,70.00000,R,ugm-3,63.00000,R,ugm-3,170.00000,R,ugm-3
07-01-2012,15:00,80.00000,R,ugm-3,75.00000,R,ugm-3,197.00000,R,ugm-3
07-01-2012,16:00,150.00000,R,ugm-3,101.00000,R,ugm-3,331.00000,R,ugm-3
07-01-2012,17:00,118.00000,R,ugm-3,86.00000,R,ugm-3,268.00000,R,ugm-3
07-01-2012,18:00,135.00000,R,ugm-3,94.00000,R,ugm-3,300.00000,R,ugm-3
07-01-2012,19:00,118.00000,R,ugm-3,98.00000,R,ugm-3,279.00000,R,ugm-3
07-01-2012,20:00,77.00000,R,ugm-3,84.00000,R,ugm-3,203.00000,R,ugm-3
07-01-2012,21:00,55.00000,R,ugm-3,59.00000,R,ugm-3,143.00000,R,ugm-3
07-01-2012,22:00,36.00000,R,ugm-3,52.00000,R,ugm-3,107.00000,R,ugm-3
07-01-2012,23:00,27.00000,R,ugm-3,40.00000,R,ugm-3,82.00000,R,ugm-3
07-01-2012,24:00,21.00000,R,ugm-3,36.00000,R,ugm-3,69.00000,R,ugm-3
08-01-2012,01:00,19.00000,R,ugm-3,27.00000,R,ugm-3,55.00000,R,ugm-3
08-01-2012,02:00,12.00000,R,ugm-3,23.00000,R,ugm-3,42.00000,R,ugm-3
08-01-2012,03:00,20.00000,R,ugm-3,29.00000,R,ugm-3,59.00000,R,ugm-3
08-01-2012,04:00,10.00000,R,ugm-3,25.00000,R,ugm-3,40.00000,R,ugm-3
08-01-2012,05:00,5.00000,R,ugm-3,19.00000,R,ugm-3,27.00000,R,ugm-3
08-01-2012,06:00,11.00000,R,ugm-3,21.00000,R,ugm-3,38.00000,R,ugm-3
08-01-2012,07:00,17.00000,R,ugm-3,23.00000,R,ugm-3,50.00000,R,ugm-3
08-01-2012,08:00,22.00000,R,ugm-3,29.00000,R,ugm-3,63.00000,R,ugm-3
08-01-2012,09:00,22.00000,R,ugm-3,31.00000,R,ugm-3,65.00000,R,ugm-3
08-01-2012,10:00,69.00000,R,ugm-3,61.00000,R,ugm-3,166.00000,R,ugm-3
08-01-2012,11:00,75.00000,R,ugm-3,67.00000,R,ugm-3,182.00000,R,ugm-3
08-01-2012,12:00,37.00000,R,ugm-3,42.00000,R,ugm-3,99.00000,R,ugm-3
08-01-2012,13:00,57.00000,R,ugm-3,57.00000,R,ugm-3,145.00000,R,ugm-3
08-01-2012,14:00,67.00000,R,ugm-3,59.00000,R,ugm-3,163.00000,R,ugm-3
08-01-2012,15:00,64.00000,R,ugm-3,59.00000,R,ugm-3,157.00000,R,ugm-3
08-01-2012,16:00,116.00000,R,ugm-3,78.00000,R,ugm-3,256.00000,R,ugm-3
08-01-2012,17:00,75.00000,R,ugm-3,67.00000,R,ugm-3,182.00000,R,ugm-3
08-01-2012,18:00,82.00000,R,ugm-3,69.00000,R,ugm-3,195.00000,R,ugm-3
08-01-2012,19:00,54.00000,R,ugm-3,57.00000,R,ugm-3,140.00000,R,ugm-3
08-01-2012,20:00,71.00000,R,ugm-3,67.00000,R,ugm-3,176.00000,R,ugm-3
08-01-2012,21:00,50.00000,R,ugm-3,57.00000,R,ugm-3,134.00000,R,ugm-3
08-01-2012,22:00,35.00000,R,ugm-3,48.00000,R,ugm-3,101.00000,R,ugm-3
08-01-2012,23:00,29.00000,R,ugm-3,42.00000,R,ugm-3,86.00000,R,ugm-3
08-01-2012,24:00,15.00000,R,ugm-3,29.00000,R,ugm-3,52.00000,R,ugm-3
09-01-2012,01:00,9.00000,R,ugm-3,21.00000,R,ugm-3,34.00000,R,ugm-3
09-01-2012,02:00,12.00000,R,ugm-3,21.00000,R,ugm-3,40.00000,R,ugm-3
09-01-2012,03:00,6.00000,R,ugm-3,13.00000,R,ugm-3,23.00000,R,ugm-3
09-01-2012,04:00,10.00000,R,ugm-3,23.00000,R,ugm-3,38.00000,R,ugm-3
09-01-2012,05:00,25.00000,R,ugm-3,38.00000,R,ugm-3,77.00000,R,ugm-3
09-01-2012,06:00,49.00000,R,ugm-3,48.00000,R,ugm-3,122.00000,R,ugm-3
09-01-2012,07:00,77.00000,R,ugm-3,65.00000,R,ugm-3,184.00000,R,ugm-3
09-01-2012,08:00,111.00000,R,ugm-3,78.00000,R,ugm-3,249.00000,R,ugm-3
09-01-2012,09:00,150.00000,R,ugm-3,105.00000,R,ugm-3,335.00000,R,ugm-3
09-01-2012,10:00,155.00000,R,ugm-3,103.00000,R,ugm-3,340.00000,R,ugm-3
09-01-2012,11:00,92.00000,R,ugm-3,80.00000,R,ugm-3,222.00000,R,ugm-3
09-01-2012,12:00,95.00000,R,ugm-3,84.00000,R,ugm-3,230.00000,R,ugm-3
09-01-2012,13:00,100.00000,R,ugm-3,84.00000,R,ugm-3,237.00000,R,ugm-3
09-01-2012,14:00,111.00000,R,ugm-3,88.00000,R,ugm-3,258.00000,R,ugm-3
09-01-2012,15:00,97.00000,R,ugm-3,86.00000,R,ugm-3,235.00000,R,ugm-3
09-01-2012,16:00,95.00000,R,ugm-3,86.00000,R,ugm-3,231.00000,R,ugm-3
09-01-2012,17:00,115.00000,R,ugm-3,90.00000,R,ugm-3,266.00000,R,ugm-3
09-01-2012,18:00,145.00000,R,ugm-3,98.00000,R,ugm-3,319.00000,R,ugm-3
09-01-2012,19:00,122.00000,R,ugm-3,88.00000,R,ugm-3,275.00000,R,ugm-3
09-01-2012,20:00,97.00000,R,ugm-3,80.00000,R,ugm-3,230.00000,R,ugm-3
09-01-2012,21:00,62.00000,R,ugm-3,65.00000,R,ugm-3,161.00000,R,ugm-3
09-01-2012,22:00,39.00000,R,ugm-3,57.00000,R,ugm-3,117.00000,R,ugm-3
09-01-2012,23:00,44.00000,R,ugm-3,69.00000,R,ugm-3,136.00000,R,ugm-3
09-01-2012,24:00,37.00000,R,ugm-3,54.00000,R,ugm-3,111.00000,R,ugm-3
10-01-2012,01:00,35.00000,R,ugm-3,63.00000,R,ugm-3,117.00000,R,ugm-3
10-01-2012,02:00,6.00000,R,ugm-3,13.00000,R,ugm-3,23.00000,R,ugm-3
10-01-2012,03:00,11.00000,R,ugm-3,19.00000,R,ugm-3,36.00000,R,ugm-3
10-01-2012,04:00,7.00000,R,ugm-3,17.00000,R,ugm-3,29.00000,R,ugm-3
10-01-2012,05:00,27.00000,R,ugm-3,34.00000,R,ugm-3,77.00000,R,ugm-3
10-01-2012,06:00,44.00000,R,ugm-3,42.00000,R,ugm-3,109.00000,R,ugm-3
10-01-2012,07:00,69.00000,R,ugm-3,69.00000,R,ugm-3,174.00000,R,ugm-3
10-01-2012,08:00,126.00000,R,ugm-3,90.00000,R,ugm-3,283.00000,R,ugm-3
10-01-2012,09:00,158.00000,R,ugm-3,92.00000,R,ugm-3,335.00000,R,ugm-3
10-01-2012,10:00,168.00000,R,ugm-3,98.00000,R,ugm-3,356.00000,R,ugm-3
10-01-2012,11:00,175.00000,R,ugm-3,99.00000,R,ugm-3,367.00000,R,ugm-3
10-01-2012,12:00,120.00000,R,ugm-3,96.00000,R,ugm-3,279.00000,R,ugm-3
10-01-2012,13:00,125.00000,R,ugm-3,94.00000,R,ugm-3,285.00000,R,ugm-3
10-01-2012,14:00,107.00000,R,ugm-3,84.00000,R,ugm-3,249.00000,R,ugm-3
10-01-2012,15:00,90.00000,R,ugm-3,92.00000,R,ugm-3,230.00000,R,ugm-3
10-01-2012,16:00,104.00000,R,ugm-3,92.00000,R,ugm-3,251.00000,R,ugm-3
10-01-2012,17:00,107.00000,R,ugm-3,94.00000,R,ugm-3,258.00000,R,ugm-3
10-01-2012,18:00,137.00000,R,ugm-3,96.00000,R,ugm-3,306.00000,R,ugm-3
10-01-2012,19:00,114.00000,R,ugm-3,92.00000,R,ugm-3,266.00000,R,ugm-3
10-01-2012,20:00,81.00000,R,ugm-3,82.00000,R,ugm-3,207.00000,R,ugm-3
10-01-2012,21:00,52.00000,R,ugm-3,69.00000,R,ugm-3,149.00000,R,ugm-3
10-01-2012,22:00,40.00000,R,ugm-3,61.00000,R,ugm-3,122.00000,R,ugm-3
10-01-2012,23:00,32.00000,R,ugm-3,50.00000,R,ugm-3,99.00000,R,ugm-3
10-01-2012,24:00,35.00000,R,ugm-3,48.00000,R,ugm-3,101.00000,R,ugm-3
11-01-2012,01:00,24.00000,R,ugm-3,38.00000,R,ugm-3,75.00000,R,ugm-3
11-01-2012,02:00,,,,,,,,,
11-01-2012,03:00,10.00000,R,ugm-3,23.00000,R,ugm-3,38.00000,R,ugm-3
11-01-2012,04:00,2.00000,R,ugm-3,15.00000,R,ugm-3,19.00000,R,ugm-3
11-01-2012,05:00,15.00000,R,ugm-3,29.00000,R,ugm-3,52.00000,R,ugm-3
11-01-2012,06:00,40.00000,R,ugm-3,54.00000,R,ugm-3,115.00000,R,ugm-3
11-01-2012,07:00,95.00000,R,ugm-3,78.00000,R,ugm-3,224.00000,R,ugm-3
11-01-2012,08:00,163.00000,R,ugm-3,103.00000,R,ugm-3,354.00000,R,ugm-3
11-01-2012,09:00,247.00000,R,ugm-3,120.00000,R,ugm-3,499.00000,R,ugm-3
11-01-2012,10:00,162.00000,R,ugm-3,94.00000,R,ugm-3,342.00000,R,ugm-3
11-01-2012,11:00,284.00000,R,ugm-3,99.00000,R,ugm-3,536.00000,R,ugm-3
11-01-2012,12:00,,,,,,,,,
11-01-2012,13:00,133.00000,R,ugm-3,99.00000,R,ugm-3,304.00000,R,ugm-3
11-01-2012,14:00,112.00000,R,ugm-3,94.00000,R,ugm-3,266.00000,R,ugm-3
11-01-2012,15:00,115.00000,R,ugm-3,99.00000,R,ugm-3,275.00000,R,ugm-3
11-01-2012,16:00,132.00000,R,ugm-3,98.00000,R,ugm-3,300.00000,R,ugm-3
11-01-2012,17:00,125.00000,R,ugm-3,98.00000,R,ugm-3,289.00000,R,ugm-3
11-01-2012,18:00,132.00000,R,ugm-3,103.00000,R,ugm-3,306.00000,R,ugm-3
11-01-2012,19:00,140.00000,R,ugm-3,99.00000,R,ugm-3,314.00000,R,ugm-3
11-01-2012,20:00,76.00000,R,ugm-3,78.00000,R,ugm-3,195.00000,R,ugm-3
11-01-2012,21:00,62.00000,R,ugm-3,69.00000,R,ugm-3,164.00000,R,ugm-3
11-01-2012,22:00,36.00000,R,ugm-3,46.00000,R,ugm-3,101.00000,R,ugm-3
11-01-2012,23:00,26.00000,R,ugm-3,44.00000,R,ugm-3,84.00000,R,ugm-3
11-01-2012,24:00,22.00000,R,ugm-3,38.00000,R,ugm-3,73.00000,R,ugm-3
12-01-2012,01:00,20.00000,R,ugm-3,34.00000,R,ugm-3,65.00000,R,ugm-3
12-01-2012,02:00,5.00000,R,ugm-3,15.00000,R,ugm-3,23.00000,R,ugm-3
12-01-2012,03:00,7.00000,R,ugm-3,17.00000,R,ugm-3,29.00000,R,ugm-3
12-01-2012,04:00,16.00000,R,ugm-3,19.00000,R,ugm-3,44.00000,R,ugm-3
12-01-2012,05:00,15.00000,R,ugm-3,27.00000,R,ugm-3,50.00000,R,ugm-3
12-01-2012,06:00,29.00000,R,ugm-3,34.00000,R,ugm-3,78.00000,R,ugm-3
12-01-2012,07:00,41.00000,R,ugm-3,55.00000,R,ugm-3,119.00000,R,ugm-3
12-01-2012,08:00,76.00000,R,ugm-3,73.00000,R,ugm-3,189.00000,R,ugm-3
12-01-2012,09:00,205.00000,R,ugm-3,147.00000,R,ugm-3,461.00000,R,ugm-3
12-01-2012,10:00,105.00000,R,ugm-3,90.00000,R,ugm-3,251.00000,R,ugm-3
12-01-2012,11:00,107.00000,R,ugm-3,88.00000,R,ugm-3,252.00000,R,ugm-3
12-01-2012,12:00,109.00000,R,ugm-3,88.00000,R,ugm-3,254.00000,R,ugm-3
12-01-2012,13:00,153.00000,R,ugm-3,98.00000,R,ugm-3,333.00000,R,ugm-3
12-01-2012,14:00,91.00000,R,ugm-3,73.00000,R,ugm-3,212.00000,R,ugm-3
12-01-2012,15:00,112.00000,R,ugm-3,77.00000,R,ugm-3,249.00000,R,ugm-3
12-01-2012,16:00,75.00000,R,ugm-3,84.00000,R,ugm-3,199.00000,R,ugm-3
12-01-2012,17:00,86.00000,R,ugm-3,82.00000,R,ugm-3,214.00000,R,ugm-3
12-01-2012,18:00,81.00000,R,ugm-3,75.00000,R,ugm-3,199.00000,R,ugm-3
12-01-2012,19:00,122.00000,R,ugm-3,94.00000,R,ugm-3,281.00000,R,ugm-3
12-01-2012,20:00,175.00000,R,ugm-3,99.00000,R,ugm-3,367.00000,R,ugm-3
12-01-2012,21:00,109.00000,R,ugm-3,75.00000,R,ugm-3,241.00000,R,ugm-3
12-01-2012,22:00,112.00000,R,ugm-3,69.00000,R,ugm-3,241.00000,R,ugm-3
12-01-2012,23:00,137.00000,R,ugm-3,67.00000,R,ugm-3,277.00000,R,ugm-3
12-01-2012,24:00,107.00000,R,ugm-3,57.00000,R,ugm-3,222.00000,R,ugm-3
13-01-2012,01:00,67.00000,R,ugm-3,48.00000,R,ugm-3,151.00000,R,ugm-3
13-01-2012,02:00,64.00000,R,ugm-3,38.00000,R,ugm-3,136.00000,R,ugm-3
13-01-2012,03:00,70.00000,R,ugm-3,34.00000,R,ugm-3,142.00000,R,ugm-3
13-01-2012,04:00,74.00000,R,ugm-3,38.00000,R,ugm-3,151.00000,R,ugm-3
13-01-2012,05:00,102.00000,R,ugm-3,44.00000,R,ugm-3,201.00000,R,ugm-3
13-01-2012,06:00,161.00000,R,ugm-3,46.00000,R,ugm-3,293.00000,R,ugm-3
13-01-2012,07:00,196.00000,R,ugm-3,69.00000,R,ugm-3,369.00000,R,ugm-3
13-01-2012,08:00,368.00000,R,ugm-3,99.00000,R,ugm-3,664.00000,R,ugm-3
13-01-2012,09:00,385.00000,R,ugm-3,105.00000,R,ugm-3,696.00000,R,ugm-3
13-01-2012,10:00,379.00000,R,ugm-3,107.00000,R,ugm-3,689.00000,R,ugm-3
13-01-2012,11:00,530.00000,R,ugm-3,132.00000,R,ugm-3,945.00000,R,ugm-3
13-01-2012,12:00,254.00000,R,ugm-3,119.00000,R,ugm-3,509.00000,R,ugm-3
13-01-2012,13:00,225.00000,R,ugm-3,119.00000,R,ugm-3,463.00000,R,ugm-3
13-01-2012,14:00,148.00000,R,ugm-3,105.00000,R,ugm-3,333.00000,R,ugm-3
13-01-2012,15:00,140.00000,R,ugm-3,105.00000,R,ugm-3,319.00000,R,ugm-3
13-01-2012,16:00,182.00000,R,ugm-3,103.00000,R,ugm-3,383.00000,R,ugm-3
13-01-2012,17:00,236.00000,R,ugm-3,142.00000,R,ugm-3,503.00000,R,ugm-3
13-01-2012,18:00,272.00000,R,ugm-3,103.00000,R,ugm-3,520.00000,R,ugm-3
13-01-2012,19:00,252.00000,R,ugm-3,105.00000,R,ugm-3,492.00000,R,ugm-3
13-01-2012,20:00,176.00000,R,ugm-3,71.00000,R,ugm-3,340.00000,R,ugm-3
13-01-2012,21:00,102.00000,R,ugm-3,63.00000,R,ugm-3,220.00000,R,ugm-3
13-01-2012,22:00,94.00000,R,ugm-3,54.00000,R,ugm-3,197.00000,R,ugm-3
13-01-2012,23:00,90.00000,R,ugm-3,52.00000,R,ugm-3,189.00000,R,ugm-3
13-01-2012,24:00,52.00000,R,ugm-3,48.00000,R,ugm-3,128.00000,R,ugm-3
14-01-2012,01:00,49.00000,R,ugm-3,40.00000,R,ugm-3,115.00000,R,ugm-3
14-01-2012,02:00,39.00000,R,ugm-3,34.00000,R,ugm-3,94.00000,R,ugm-3
14-01-2012,03:00,32.00000,R,ugm-3,34.00000,R,ugm-3,84.00000,R,ugm-3
14-01-2012,04:00,16.00000,R,ugm-3,34.00000,R,ugm-3,59.00000,R,ugm-3
14-01-2012,05:00,47.00000,R,ugm-3,42.00000,R,ugm-3,115.00000,R,ugm-3
14-01-2012,06:00,30.00000,R,ugm-3,34.00000,R,ugm-3,80.00000,R,ugm-3
14-01-2012,07:00,24.00000,R,ugm-3,33.00000,R,ugm-3,69.00000,R,ugm-3
14-01-2012,08:00,77.00000,R,ugm-3,52.00000,R,ugm-3,170.00000,R,ugm-3
14-01-2012,09:00,111.00000,R,ugm-3,71.00000,R,ugm-3,241.00000,R,ugm-3
14-01-2012,10:00,155.00000,R,ugm-3,80.00000,R,ugm-3,317.00000,R,ugm-3
14-01-2012,11:00,211.00000,R,ugm-3,78.00000,R,ugm-3,402.00000,R,ugm-3
14-01-2012,12:00,131.00000,R,ugm-3,80.00000,R,ugm-3,281.00000,R,ugm-3
14-01-2012,13:00,94.00000,R,ugm-3,75.00000,R,ugm-3,218.00000,R,ugm-3
14-01-2012,14:00,123.00000,R,ugm-3,82.00000,R,ugm-3,272.00000,R,ugm-3
14-01-2012,15:00,152.00000,R,ugm-3,98.00000,R,ugm-3,331.00000,R,ugm-3
14-01-2012,16:00,170.00000,R,ugm-3,99.00000,R,ugm-3,360.00000,R,ugm-3
14-01-2012,17:00,190.00000,R,ugm-3,103.00000,R,ugm-3,394.00000,R,ugm-3
14-01-2012,18:00,160.00000,R,ugm-3,103.00000,R,ugm-3,348.00000,R,ugm-3
14-01-2012,19:00,94.00000,R,ugm-3,78.00000,R,ugm-3,222.00000,R,ugm-3
14-01-2012,20:00,82.00000,R,ugm-3,75.00000,R,ugm-3,201.00000,R,ugm-3
14-01-2012,21:00,52.00000,R,ugm-3,59.00000,R,ugm-3,140.00000,R,ugm-3
14-01-2012,22:00,34.00000,R,ugm-3,52.00000,R,ugm-3,103.00000,R,ugm-3
14-01-2012,23:00,22.00000,R,ugm-3,42.00000,R,ugm-3,77.00000,R,ugm-3
14-01-2012,24:00,20.00000,R,ugm-3,36.00000,R,ugm-3,67.00000,R,ugm-3
15-01-2012,01:00,20.00000,R,ugm-3,31.00000,R,ugm-3,61.00000,R,ugm-3
15-01-2012,02:00,10.00000,R,ugm-3,23.00000,R,ugm-3,38.00000,R,ugm-3
15-01-2012,03:00,10.00000,R,ugm-3,21.00000,R,ugm-3,36.00000,R,ugm-3
15-01-2012,04:00,7.00000,R,ugm-3,23.00000,R,ugm-3,34.00000,R,ugm-3
15-01-2012,05:00,7.00000,R,ugm-3,19.00000,R,ugm-3,31.00000,R,ugm-3
15-01-2012,06:00,6.00000,R,ugm-3,13.00000,R,ugm-3,23.00000,R,ugm-3
15-01-2012,07:00,5.00000,R,ugm-3,13.00000,R,ugm-3,21.00000,R,ugm-3
15-01-2012,08:00,7.00000,R,ugm-3,19.00000,R,ugm-3,31.00000,R,ugm-3
15-01-2012,09:00,20.00000,R,ugm-3,25.00000,R,ugm-3,55.00000,R,ugm-3
15-01-2012,10:00,35.00000,R,ugm-3,44.00000,R,ugm-3,98.00000,R,ugm-3
15-01-2012,11:00,51.00000,R,ugm-3,46.00000,R,ugm-3,124.00000,R,ugm-3
15-01-2012,12:00,41.00000,R,ugm-3,44.00000,R,ugm-3,107.00000,R,ugm-3
15-01-2012,13:00,55.00000,R,ugm-3,55.00000,R,ugm-3,140.00000,R,ugm-3
15-01-2012,14:00,52.00000,R,ugm-3,55.00000,R,ugm-3,136.00000,R,ugm-3
15-01-2012,15:00,57.00000,R,ugm-3,57.00000,R,ugm-3,145.00000,R,ugm-3
15-01-2012,16:00,67.00000,R,ugm-3,67.00000,R,ugm-3,170.00000,R,ugm-3
15-01-2012,17:00,57.00000,R,ugm-3,61.00000,R,ugm-3,149.00000,R,ugm-3
15-01-2012,18:00,59.00000,R,ugm-3,69.00000,R,ugm-3,159.00000,R,ugm-3
15-01-2012,19:00,42.00000,R,ugm-3,54.00000,R,ugm-3,119.00000,R,ugm-3
15-01-2012,20:00,32.00000,R,ugm-3,52.00000,R,ugm-3,101.00000,R,ugm-3
15-01-2012,21:00,31.00000,R,ugm-3,48.00000,R,ugm-3,96.00000,R,ugm-3
15-01-2012,22:00,19.00000,R,ugm-3,36.00000,R,ugm-3,65.00000,R,ugm-3
15-01-2012,23:00,9.00000,R,ugm-3,27.00000,R,ugm-3,40.00000,R,ugm-3
15-01-2012,24:00,6.00000,R,ugm-3,23.00000,R,ugm-3,33.00000,R,ugm-3